Theta_e
324 324 323 323 323 322 322 324 325 326 326 327 327 328 328 326 325 313 305 311 317 330 327 313 309 305 305 305 306 302 295 292 290 292 293 297 295 298 298 296 295 297 294 295 297
323 322 322 322 322 322 322 323 325 325 326 327 327 328 327 324 315 306 317 327 330 328 308 304 303 305 301 302 303 298 293 293 295 294 293 296 295 295 295 293 292 293 295 296 296
322 322 321 321 321 322 322 323 324 325 325 326 326 328 325 320 308 306 323 329 327 323 310 305 305 304 300 301 298 296 293 296 297 298 298 296 295 296 294 290 290 290 291 293 293
321 321 320 320 320 320 321 322 324 325 325 326 326 327 323 315 297 308 327 327 328 317 307 306 303 299 297 296 299 292 298 298 300 299 298 295 296 293 293 291 294 293 292 291 290
321 320 319 319 320 320 320 322 323 324 324 326 327 326 314 305 303 311 320 316 308 308 305 303 300 298 295 296 297 295 297 298 299 298 296 298 295 292 289 292 293 293 292 290 290
320 319 318 319 319 318 319 321 323 324 324 326 327 323 310 300 310 313 307 308 305 305 304 302 300 301 297 298 295 297 297 297 298 298 297 295 294 293 291 291 291 291 290 290 290
320 318 318 318 318 317 318 321 322 323 324 326 327 319 307 304 309 309 307 304 304 304 304 302 301 300 300 297 299 296 292 294 295 296 295 296 291 290 292 291 290 289 288 289 290
320 318 317 318 317 316 318 320 322 322 324 325 326 314 303 312 308 309 307 305 305 304 304 303 303 301 298 299 297 292 290 287 294 295 295 292 286 289 291 288 286 285 284 287 287
319 317 317 317 316 316 318 320 321 324 324 324 313 306 301 314 308 309 304 302 303 303 303 304 302 298 297 292 289 290 285 285 290 295 293 291 287 290 292 287 285 283 284 285 284
319 317 317 317 315 316 319 321 322 321 318 314 310 302 304 304 308 308 304 303 302 301 302 300 296 292 291 289 283 283 283 286 286 291 292 290 289 289 289 286 283 283 282 282 283
319 317 316 316 315 317 315 306 302 303 302 300 301 301 305 309 307 305 303 302 302 298 294 297 291 288 289 288 288 288 287 285 289 293 289 289 289 287 287 284 281 281 281 282 283
319 316 316 315 314 317 309 302 301 303 294 302 304 304 308 305 299 302 302 297 297 292 295 292 289 293 294 292 291 289 287 285 289 291 288 287 286 290 286 284 283 282 282 282 282
317 315 314 314 313 310 303 303 309 306 295 299 304 305 305 303 299 299 298 296 294 292 291 288 292 292 291 288 288 287 285 284 286 287 287 285 282 285 284 284 284 284 283 282 282
317 314 313 312 308 303 303 307 308 304 288 294 297 303 301 300 296 301 298 296 294 292 289 288 291 290 289 289 290 284 287 286 285 281 277 282 276 279 281 282 283 283 280 280 281
316 313 311 311 303 301 304 307 305 300 277 294 299 304 302 297 297 298 298 295 291 293 291 291 287 287 287 287 290 286 286 285 284 281 278 279 275 278 281 279 281 280 280 280 281
315 310 308 307 303 302 303 303 299 289 280 294 299 297 295 295 296 297 296 295 294 289 289 290 290 288 287 290 289 289 286 284 282 279 272 278 278 276 277 281 281 279 279 281 281
314 308 306 306 299 301 303 299 286 281 292 292 293 295 293 293 294 294 292 289 290 285 284 288 286 288 290 286 288 286 280 275 272 272 273 277 275 280 282 282 282 278 279 280 280
312 307 307 306 303 302 302 291 280 288 291 294 293 292 291 294 293 290 288 287 289 287 283 282 281 286 288 286 284 284 280 275 270 269 276 277 274 279 280 281 280 280 280 280 279
309 303 303 304 304 302 292 283 285 289 294 294 292 288 289 291 290 287 285 286 289 289 285 282 282 284 284 285 285 281 278 282 276 263 266 273 276 279 279 279 278 278 279 278 279
308 307 304 305 304 301 286 290 290 295 295 294 290 291 287 289 287 286 287 289 289 289 288 285 280 283 281 282 282 281 283 277 277 270 264 271 274 277 276 277 277 277 277 278 278
306 300 302 305 304 294 284 287 292 297 297 293 290 290 290 288 288 286 288 290 289 285 286 284 282 280 280 279 279 276 276 278 278 277 271 267 273 278 279 279 276 276 278 278 278
306 294 302 305 292 289 290 291 296 295 298 295 293 292 290 290 289 288 289 292 289 286 284 284 281 275 278 280 281 279 279 279 276 274 274 275 275 281 280 278 277 277 278 279 280
300 298 304 304 290 290 293 293 295 293 294 292 291 293 294 290 287 290 292 289 288 287 283 283 278 272 279 275 277 276 276 278 278 277 274 272 273 279 278 276 277 276 277 278 278
297 291 296 298 296 291 291 292 292 295 295 295 292 293 291 288 292 288 288 286 287 285 290 287 280 282 281 284 279 277 275 276 277 275 275 275 277 278 276 275 275 276 277 277 277
298 293 294 288 291 292 293 291 291 290 293 295 292 292 290 287 287 287 289 281 283 287 284 283 277 279 283 283 280 281 279 276 274 277 275 277 277 280 282 279 277 277 277 277 276
297 291 292 289 292 291 292 290 289 290 293 290 290 290 292 289 290 287 290 287 285 281 280 282 277 279 278 280 279 276 278 277 277 277 277 277 277 284 282 278 275 276 277 277 276
306 301 297 293 290 289 289 290 291 293 294 295 293 292 290 291 294 293 291 290 290 282 279 279 278 276 276 278 275 272 276 277 278 279 279 273 278 283 280 277 276 276 277 276 275
Wind_Speed
18 18 19 20 19 19 18 18 17 16 15 14 13 10 8 10 10 5 7 5 7 15 9 7 4 5 2 2 1 3 5 2 3 4 3 4 3 6 3 12 9 6 6 4 5
18 18 19 20 20 18 18 17 16 16 14 13 12 10 7 8 1 8 2 9 9 8 5 7 6 8 2 0 4 5 3 1 1 2 2 1 4 4 6 5 5 7 7 9 10
17 18 19 20 20 19 18 17 15 15 14 11 10 8 7 3 3 3 7 8 8 5 4 3 4 2 3 2 1 3 3 2 3 4 3 2 5 4 11 5 2 8 6 7 10
16 17 18 19 20 20 19 17 17 16 14 10 8 5 4 2 2 2 7 8 9 5 3 5 5 3 3 1 0 2 6 2 3 4 3 1 4 5 5 5 8 9 8 9 10
16 16 17 18 19 20 19 18 16 15 13 11 7 4 2 4 3 2 8 7 3 4 5 5 6 4 2 4 2 3 3 2 3 2 0 3 6 8 6 7 8 10 11 10 9
15 17 17 17 19 20 20 19 16 15 12 9 6 3 2 1 2 3 5 2 5 5 4 6 2 2 4 3 3 3 4 7 2 3 3 4 7 9 5 5 9 9 9 8 9
15 16 18 18 19 20 22 22 17 14 13 6 4 2 3 2 3 2 3 1 1 2 3 2 2 2 5 4 2 0 3 3 4 4 4 5 2 5 11 7 9 8 7 7 7
14 15 17 18 19 20 22 24 18 16 11 4 2 2 2 1 1 2 4 2 1 2 3 2 2 1 0 5 4 1 2 1 4 6 4 4 5 6 10 12 9 8 6 6 4
14 14 17 19 20 20 21 25 20 11 6 5 2 2 1 1 1 1 2 1 3 1 1 2 2 0 3 2 5 4 3 3 4 6 2 3 5 10 9 11 9 8 7 6 4
12 14 16 18 20 20 22 20 6 8 2 2 2 3 2 3 1 3 2 2 0 1 2 1 2 3 4 4 4 4 4 4 5 3 6 6 6 8 11 10 10 8 7 6 5
11 12 16 18 20 20 12 7 9 7 9 5 4 3 1 5 2 3 1 1 2 2 2 4 3 5 5 1 1 3 5 7 8 4 5 7 6 13 12 7 10 9 8 7 5
8 11 15 18 20 20 2 7 3 2 9 4 1 3 2 3 2 2 5 2 2 1 3 6 7 6 6 5 5 5 7 8 8 4 0 5 11 8 19 14 11 10 8 7 4
6 9 14 17 20 4 5 4 2 1 2 4 3 3 2 3 2 3 2 2 2 2 2 4 4 5 4 2 3 5 6 5 7 6 7 7 8 7 5 6 8 7 7 6 7
8 8 13 21 2 2 2 1 1 1 5 7 2 2 2 1 2 1 1 1 1 2 2 6 2 4 3 5 6 6 2 2 5 4 4 2 12 4 10 12 12 10 8 7 6
7 5 11 7 3 1 3 0 0 2 5 5 2 1 2 3 1 1 1 2 4 5 5 11 4 5 5 6 5 6 2 5 5 9 3 6 6 6 12 13 13 9 8 6 6
5 2 9 3 1 1 1 1 2 6 9 3 4 3 1 3 2 3 2 2 3 1 3 9 2 5 7 3 3 2 3 5 4 2 4 10 12 5 8 15 15 8 8 7 5
5 1 3 0 2 4 2 2 5 5 4 5 5 5 3 4 4 4 3 0 1 5 4 6 5 1 3 2 3 2 4 6 7 3 9 2 1 14 7 7 19 14 10 7 5
7 2 3 1 4 4 2 5 6 7 8 2 3 3 6 8 4 3 4 2 5 3 1 4 7 6 4 4 7 6 8 6 8 5 10 6 10 6 1 11 13 10 9 7 5
7 2 2 3 6 2 5 5 12 10 6 8 2 4 4 4 3 4 7 7 7 9 9 3 6 2 4 1 4 3 5 2 1 2 3 6 5 3 2 7 7 9 8 7 6
2 3 5 9 7 3 4 15 9 8 5 4 10 9 8 6 6 6 7 6 5 5 3 4 8 0 2 2 3 2 3 3 1 4 8 7 9 10 12 14 8 8 8 5 0
2 3 1 6 4 2 9 11 13 9 5 8 8 6 6 7 9 7 8 4 6 4 4 5 6 2 4 8 10 1 4 4 3 6 6 3 8 5 18 15 12 8 7 6 5
3 4 4 4 3 4 13 10 6 9 16 18 7 10 11 7 7 8 12 11 9 10 10 8 5 5 12 4 2 4 10 11 7 8 5 12 21 7 12 11 10 9 8 6 6
4 5 3 2 9 11 5 10 16 8 14 6 9 10 9 9 7 12 14 2 12 11 12 10 5 3 8 3 3 6 6 6 3 0 20 12 13 2 10 9 8 9 9 6 3
4 5 4 5 6 6 11 16 16 11 25 10 8 8 6 7 10 6 7 3 2 4 7 8 6 10 19 19 4 8 9 10 14 12 23 27 34 12 9 10 9 8 7 7 7
5 8 9 9 14 19 12 7 19 15 9 19 13 22 13 13 9 14 7 1 2 5 5 8 11 8 20 14 5 19 15 16 19 27 20 38 25 27 18 17 13 10 8 3 1
9 7 3 4 9 23 27 29 25 9 15 20 22 13 24 28 20 12 16 9 11 4 7 4 8 4 16 8 15 27 18 20 26 30 29 33 37 24 10 6 8 8 6 3 2
9 3 8 10 11 14 21 28 27 22 15 13 23 20 20 22 19 17 7 5 8 15 15 12 7 5 16 1 3 18 23 30 25 24 24 26 36 20 13 9 9 8 5 4 3
Wind_Direction
5 2 359 355 350 348 351 349 345 336 340 340 343 337 347 348 322 25 45 312 305 314 323 284 316 295 356 313 49 72 65 317 358 61 119 352 104 19 52 82 42 59 85 120 36
0 360 356 353 348 344 346 346 341 332 339 339 343 335 359 358 29 56 291 297 298 315 348 5 349 345 351 153 359 74 88 261 12 71 107 68 112 119 74 85 66 82 52 58 43
357 356 353 350 346 343 343 341 338 329 334 340 338 339 347 29 56 334 299 314 307 297 249 300 291 284 330 59 16 345 206 333 56 110 60 8 51 7 131 55 51 132 102 65 54
351 349 350 349 344 343 339 336 334 327 330 341 336 342 330 92 88 296 318 317 307 290 292 2 350 29 328 249 117 13 269 53 356 57 57 1 84 67 39 120 148 119 111 84 66
345 344 346 343 340 339 334 329 328 322 327 334 338 345 148 66 191 311 340 341 5 1 48 17 37 356 351 333 351 178 271 318 311 43 110 351 124 126 110 142 112 91 82 80 67
345 340 342 341 339 336 330 323 324 317 321 327 340 327 114 297 176 6 341 353 22 38 46 39 34 305 275 260 140 316 314 288 294 178 144 132 140 90 241 137 100 96 97 95 91
343 340 338 338 337 335 327 319 321 309 311 317 333 267 77 185 163 38 17 187 321 54 85 63 339 52 327 322 19 32 319 6 213 201 221 143 216 154 146 146 123 116 112 109 105
337 337 335 333 334 332 325 316 318 304 293 279 277 190 151 158 110 36 341 211 186 92 96 120 11 288 201 321 340 318 147 122 256 164 253 103 262 167 169 139 144 132 121 112 104
331 335 334 333 330 328 323 311 309 294 250 279 206 122 234 129 168 303 110 227 296 165 102 113 52 182 26 49 358 360 282 293 327 214 152 160 242 174 179 154 153 154 144 133 97
325 333 333 332 328 327 323 304 289 329 221 236 290 35 159 191 269 320 220 205 52 344 39 346 62 47 19 73 248 277 304 301 268 239 202 200 243 170 180 159 165 160 152 144 112
321 332 332 331 328 325 345 1 13 346 33 237 262 248 53 312 107 212 225 316 132 46 356 268 67 256 210 141 222 254 257 253 266 247 186 231 249 190 184 170 171 172 167 156 112
321 331 329 327 325 320 42 78 120 209 306 301 231 289 220 130 345 247 19 158 109 237 326 11 247 198 169 203 225 234 262 273 281 167 340 257 252 243 185 186 173 167 173 157 130
326 331 328 324 319 7 72 109 346 12 320 302 208 234 191 150 223 218 338 140 159 170 176 188 224 162 176 206 239 252 230 252 254 328 301 284 272 206 193 158 172 173 163 149 144
302 329 329 325 20 309 77 40 357 348 49 272 242 242 162 148 287 37 357 133 218 253 197 237 219 163 187 243 174 264 177 228 280 353 247 125 289 199 176 183 184 185 165 154 133
275 327 325 349 284 96 123 275 267 65 10 255 205 171 112 162 127 215 294 40 183 195 107 248 192 204 216 223 155 240 44 247 252 248 358 236 258 257 161 205 196 178 172 153 147
248 334 335 51 339 103 157 231 91 53 251 234 152 189 148 190 217 140 36 52 134 28 247 248 15 173 203 134 183 18 306 265 221 157 261 239 205 239 181 217 174 169 165 151 134
201 230 327 219 228 164 179 75 40 160 265 209 203 177 178 200 203 168 160 327 160 338 306 333 218 94 121 124 17 73 50 321 341 342 236 210 278 243 221 196 171 159 161 150 134
177 183 224 245 146 148 126 58 189 226 241 129 147 148 192 164 215 144 121 253 247 167 329 227 304 174 173 188 184 190 164 168 258 240 280 336 256 247 124 115 126 140 146 145 158
146 213 221 204 148 137 94 191 195 201 216 159 88 182 237 214 187 142 205 213 217 168 184 239 259 93 36 25 144 193 187 168 281 136 7 240 277 342 159 133 137 144 147 168 187
198 222 205 147 143 101 108 223 220 215 141 155 183 179 205 200 174 180 194 204 206 181 158 198 292 182 158 55 317 209 183 70 74 286 275 269 264 236 194 198 179 167 164 172 181
202 250 177 117 122 119 205 218 225 236 151 173 205 228 218 188 189 198 222 251 164 133 111 150 165 210 125 199 187 139 235 231 187 172 232 295 246 231 194 183 183 175 167 187 213
196 230 178 149 162 208 220 197 227 203 233 245 204 216 224 169 246 231 226 203 163 151 163 206 169 225 223 213 206 175 201 189 206 228 239 253 272 181 184 161 162 171 182 197 200
225 203 200 196 216 219 246 220 232 176 220 204 222 214 196 200 249 223 232 154 159 154 171 182 217 342 295 13 342 220 206 212 261 344 239 246 259 86 131 147 174 175 197 190 200
160 214 164 208 235 217 220 242 225 212 230 232 231 181 162 224 223 256 198 231 194 146 150 146 204 195 252 268 133 229 192 203 214 243 253 239 260 237 186 177 194 195 190 195 197
193 224 186 201 213 224 215 226 219 225 217 203 238 222 204 234 202 228 205 142 308 178 173 166 241 197 257 275 269 262 246 215 217 234 231 259 245 256 243 218 194 188 173 139 39
185 168 182 194 177 202 221 232 233 219 200 217 226 201 217 229 216 229 218 183 203 171 168 180 254 143 271 235 246 259 247 243 237 243 245 252 268 256 268 132 154 160 168 140 86
198 193 185 203 191 195 214 226 228 216 247 229 213 224 225 225 227 240 213 197 197 168 185 168 191 154 257 94 341 272 234 228 240 241 230 241 245 275 245 173 169 164 134 115 65